Погода в Малоярославеце

Погода в Малоярославеце : погода сейчас, прогноз погоды и архив. Всё, что Вы хотите узнать о погоде в Малоярославеце!

Хотите узнать прогноз погоды в Малоярославеце? Тогда Вам сюда: Погода в Малоярославеце

Поиск расширенной информации на нашем сайте:

Другие новости

Новости СМИ2

Главная страница сайта

Новости сайта

03.07.2017

Напоминаем, что на нашем специализированном сайте Метеоцентр.Азия вы можете получить высокодетализированные автоматические прогнозы погоды по пунктам России, СНГ и мира в авиационном формате (включающие направление и скорость ветра, видимость, явления погоды, количество и форму облачности, нижнюю и верхнюю границу облачности).

Рекомендуем: http://www.usadba22.ru/ купить дачный участок в рассрочку.

Погода в Малоярославеце - сегодня

Время (UTC), дата Ветер
(°,м/с) 
Видим.   Явления Облачность Т
(°С)
Тd
(°С)
f(%) Тe
(°С)
Pmin
(гПа)
dP
(гПа)
Po
(мм)
O2
(г/м3)
Тmin Tmax R s Состояние
почвы
15 16.04.18 250 (З) 20000 м    8/3 600 м средняя, верхняя 
[Sc|Ac trans|Ci fib]
+19.4 +5 39 +21  1016.8  -1  745  280           
00 17.04.18 тихо ()   н/о    8/0 средняя 
[Ac trans]
+10.8 +5.1 68 +11  1016.9  0.4  745  288           
09 17.04.18 140 (ЮВ) 20000 м    9/0 верхняя 
[Ci fib]
+19.7 +6.1 41 +21  1016  745  279           
21 17.04.18 200 (Ю) н/о    10/10 720 м 
[Sc]
+14.2 +6.5 60 +15  1013  -1.2  742  283           
06 18.04.18 250 (З) 2000 м  слаб. дождь{ливн. осадки}  10/9 210 м средняя 
[Frnb|As op]
+10.5 +9.7 95 +12  1009.3  -0.7  739  285  +10       
21 18.04.18 320 (СЗ) н/о    10/10 360 м 
[St]
+6.1 +4 86 +5  1008.5  -2  738  290           
06 19.04.18 340 (С) 20000 м  в посл. час дождь{ливн. осадки}  10/10 240 м 
[St]
+6.7 +5.5 92 +6  1005.6  0.2  736  289  +5.2       
09 19.04.18 350 (С) 20000 м    10/0 средняя 
[As op]
+8.7 +3.4 69 +8  1005.7  0.2  737  287           
21 19.04.18 360 (С) н/о    ясно 
+9.6 -1.4 46 +9  1010.9  1.3  740  288           
00 20.04.18 340 (С) н/о    ясно 
+6.7 -1.6 55 +7  1012.5  1.2  741  292           
03 20.04.18 350 (С) 20000 м    ясно 
+5.5 -1.6 60 +4  1014.2  1.6  743  293  +5.3         
15 20.04.18 330 (СЗ) 20000 м    6/6 600 м 
[Cu Sc]
+14.5 -3.3 29 +15  1014.3  -0.9  743  285           
21 20.04.18 240 (ЮЗ) н/о    9/0 средняя 
[Ac trans]
+9 +0.2 54 +10  1012.2  -1.5  741  289           
00 21.04.18 200 (Ю) н/о    10/0 средняя 
[Ac und]
+7.8 +1 62 +8               
06 22.04.18 310 (СЗ) 4{13}  20000 м  {ливн. осадки}  8/8 540 м 
[Sc]
+4.5 +0.6 76 +3      +3.7        мокрая 
21 22.04.18 340 (С) н/о    9/9 540 м 
[Sc]
+1.2 -6.3 57 +1  1010.2  1.8  739  297           
03 23.04.18 320 (СЗ) 20000 м    ясно 
-1 -5.5 71 -2  1013.1  1.8  741  300  -1.2         
15 23.04.18 310 (СЗ) 20000 м    ясно 
+8 -11.7 23 +7  1013.5  -1.6  742  292           
21 23.04.18 200 (Ю) н/о    ясно 
-2.1 -5.8 76 -2  1014.8  -0.1  742  302           
00 24.04.18 210 (ЮЗ) н/о    ясно 
-3.6 -6.1 83 -3  1015.6  0.7  743  304           
03 24.04.18 тихо ()   20000 м    ясно 
-2.6 -5.6 80 -3  1015.4  -0.1  743  303  -4.3         
09 24.04.18 280 (З) 20000 м    5/0 верхняя 
[Ci]
+10.8 -7.8 26 +11  1013.1  -1.1  742  288           
12 24.04.18 260 (З) 20000 м    8/0 верхняя 
[Ci]
+11.9 -7.4 25 +12  1011.6  -1.4  741  287           
15 24.04.18 240 (ЮЗ) 20000 м    9/0 верхняя 
[Ci sp]
+11.1 -6.4 29 +11  1010.3  -1.2  740  287           
21 24.04.18 170 (Ю) н/о    10/0 верхняя 
[Cs]
+8.2 -2.1 48 +8  1009  -1.1  739  289           
Время (UTC), дата Ветер
(°,м/с) 
Видим.   Явления Облачность Т
(°С)
Тd
(°С)
f(%) Тe
(°С)
Pmin
(гПа)
dP
(гПа)
Po
(мм)
O2
(г/м3)
Тmin Tmax R s Состояние
почвы

Для получения пояснительной информации подведите курсор к названию столбца.

ПОГОДА в Малоярославеце - архив

Всё, что Вы хотите узнать о погоде в Малоярославеце - удобно и подробно!

Выберите нужную дату (начиная с 1 января 2015* года) и нажмите кнопку "Найти".
Будут отображены архивные сводки погоды по пункту Малоярославец, начиная с указанной даты.


Отображать данные в формате CSV (для использования в таблицах Excel)


Внимание! Наш архив погоды предназначен исключительно для личного некоммерческого использования в познавательных целях. Если Вам необходимы официальные справки о состоянии погоды (для производственных, юридических, коммерческих и т.п. целей), обращайтесь в органы Росгидромета.

*Примечание: данная дата относится к архиву по метеостанциям СССР (Россия, СНГ, Балтия).
Архив по метеостанциям Зарубежной Европы и Азии (кроме Китая) хранится 10 дней, по другим регионам земного шара (Китай, Африка, Америка, Австралия, Океания) - 1 день.

Малоярославец - район местоположения метеостанции


Название, широта, долгота, высота метеостанции:
Малоярославец 55°ш. 36.5°д. 197 м над ур. моря [Российская Федерация]

Дополнительная информация

В oтличие oт бoльшинства пoгoдных сайтoв мы публикуем пoдрoбную метеoинфoрмацию в детальнoм прoфессиoнальнoм фoрмате.

Характеристики температуры и влажнoсти вoздуха измеряются на высoте 2 м в тени вдали oт зданий и деревьев.
Скoрoсть ветра измеряется на высoте 10 м (на урoвне рoста челoвека скoрoсть ветра ниже в 1.5-2 раза). Если метеoстанция нахoдится в гoрoде или в лесу, тo скoрoсть ветра занижена на 2-4 м/с пo сравнению с oткрытым местoм. Скoрoсть ветра над акватoриями крупных рек и oзёр, а также на вершинах хoлмoв на 2-5 м/с выше, чем в oбычных услoвиях.
Атмoсфернoе давление в разных тoчках местнoсти мoжет значительнo oтличаться oт давления на метеoстанции, в зависимoсти oт услoвий рельефа (при пoдъёме на 10 м давление пoнижается примернo на 1 мм рт.ст.).